Location: Unspecified
(0.0000°N, 0.0000°E)
Time: 04:52:17
(UTC+00:00)

Vanguard 2 Rocket - Pass Details

Date: 12 December 2017
Orbit: 556 x 3326 km, 32.9° (Epoch: 15 January)

Event Time Altitude Azimuth Distance (km) Brightness Sun altitude
Exits shadow 01:26:04 25° 61° (ENE) 4,274 10.2 -57.8°
Drops below altitude 10° 01:31:59 10° 83° (E) 4,923 10.8 -56.8°
Sets 01:35:46 0° 92° (E) 5,563 11.3 -56.1°
